Greenville, NC

9:12 PM EST on December 15, 2019 (GMT -0500)
Pitt-Greenville

Weather History for KPGV - November, 2019

Change the Weather History Date:

Saturday, November 16, 2019

  Actual Average Record
Temperature  
Mean Temperature 45 °F -  
Max Temperature 46 °F 64 °F 82 °F (2005)
Min Temperature 44 °F 38 °F 21 °F (1933)
Degree Days  
Heating Degree Days 20    
Moisture  
Dew Point 40 °F    
Average Humidity 83    
Maximum Humidity 93    
Minimum Humidity 66    
Precipitation  
Precipitation 0.09 in - - ()
Sea Level Pressure  
Sea Level Pressure 30.09 in    
Wind  
Wind Speed 16 mph ()    
Max Wind Speed 24 mph    
Max Gust Speed 36 mph    
Visibility 9.1 miles    
Events Rain    
Averages and records for this station are not official NWS values.
T = Trace of Precipitation, MM = Missing Value Source: Averaged Metar Reports

Daily Weather History Graph

Daily Weather History Graph

Search for Another Location

Airport or City:

Astronomy

Nov. 16, 2019 Rise Set
Actual Time 6:46 AM EST 5:02 PM EST
Civil Twilight 6:18 AM EST 5:29 PM EST
Nautical Twilight 5:47 AM EST 6:00 PM EST
Astronomical Twilight 5:17 AM EST 6:30 PM EST
Moon 8:36 PM EST 10:34 AM EST
Length of Visible Light 11h 10m
Length of Day
10h 16m
Waning Gibbous, 82% of the Moon is Illuminated
Nov 16
Waning Gibbous
Nov 19
Last Quarter
Nov 26
New
Dec 4
First Quarter
Dec 12
Full

Hourly Weather History & Observations

Time (EST) Temp. Windchill Dew Point Humidity Pressure Visibility Wind Dir Wind Speed Gust Speed Precip Events Conditions
12:35 AM 44.6 °F 38.4 °F 42.8 °F 93% 30.08 in 7.0 mi North 12.7 mph 19.6 mph 0.01 in Rain Light Rain
12:55 AM 44.6 °F 37.8 °F 42.8 °F 93% 30.07 in 7.0 mi NNE 15.0 mph 24.2 mph 0.01 in Rain Light Rain
1:35 AM 44.6 °F 37.8 °F 42.8 °F 93% 30.06 in 7.0 mi NNE 15.0 mph - N/A   Overcast
1:55 AM 44.6 °F 38.8 °F 42.8 °F 93% 30.06 in 7.0 mi NNE 11.5 mph 20.7 mph N/A   Overcast
2:15 AM 44.6 °F 38.8 °F 42.8 °F 93% 30.05 in 5.0 mi NNE 11.5 mph - N/A   Overcast
2:35 AM 44.6 °F 38.4 °F 42.8 °F 93% 30.05 in 7.0 mi NNE 12.7 mph - N/A   Overcast
2:55 AM 44.6 °F 38.8 °F 42.8 °F 93% 30.05 in 5.0 mi NNE 11.5 mph 21.9 mph N/A   Overcast
3:15 AM 44.6 °F 38.4 °F 42.8 °F 93% 30.05 in 7.0 mi NNE 12.7 mph 18.4 mph N/A Rain Light Rain
3:55 AM 44.6 °F 38.8 °F 41.0 °F 87% 30.05 in 10.0 mi NNE 11.5 mph - N/A   Mostly Cloudy
4:55 AM 46.4 °F 39.8 °F 41.0 °F 81% 30.05 in 10.0 mi NNE 16.1 mph 19.6 mph N/A   Overcast
5:15 AM 46.4 °F 40.1 °F 37.4 °F 71% 30.05 in 10.0 mi NNE 15.0 mph 20.7 mph N/A   Mostly Cloudy
5:55 AM 46.4 °F 39.5 °F 37.4 °F 71% 30.06 in 10.0 mi NNE 17.3 mph 24.2 mph N/A   Overcast
6:15 AM 46.4 °F 41.1 °F 37.4 °F 71% 30.07 in 10.0 mi NNE 11.5 mph - N/A   Overcast
6:35 AM 46.4 °F 40.1 °F 35.6 °F 66% 30.08 in 10.0 mi NNE 15.0 mph 19.6 mph N/A   Overcast
6:55 AM 46.4 °F 39.5 °F 35.6 °F 66% 30.09 in 10.0 mi NE 17.3 mph 25.3 mph N/A   Overcast
7:15 AM 46.4 °F 39.0 °F 35.6 °F 66% 30.10 in 10.0 mi NNE 19.6 mph 26.5 mph N/A   Overcast
7:35 AM 46.4 °F 39.5 °F 37.4 °F 71% 30.10 in 10.0 mi NNE 17.3 mph 28.8 mph N/A   Overcast
7:55 AM 46.4 °F 39.2 °F 37.4 °F 71% 30.11 in 10.0 mi NNE 18.4 mph 23.0 mph N/A   Overcast
8:35 AM 46.4 °F 38.7 °F 37.4 °F 71% 30.12 in 10.0 mi NNE 20.7 mph 27.6 mph N/A   Overcast
8:55 AM 46.4 °F 38.7 °F 37.4 °F 71% 30.12 in 10.0 mi NNE 20.7 mph 27.6 mph N/A   Overcast
9:15 AM 46.4 °F 39.2 °F 37.4 °F 71% 30.13 in 10.0 mi NNE 18.4 mph 29.9 mph N/A   Mostly Cloudy
9:35 AM 46.4 °F 38.7 °F 37.4 °F 71% 30.13 in 10.0 mi NNE 20.7 mph 29.9 mph N/A   Mostly Cloudy
9:55 AM 46.4 °F 39.2 °F 37.4 °F 71% 30.14 in 10.0 mi NNE 18.4 mph 28.8 mph N/A   Scattered Clouds
10:15 AM 46.4 °F 39.0 °F 37.4 °F 71% 30.14 in 10.0 mi NNE 19.6 mph 25.3 mph N/A   Scattered Clouds
10:35 AM 46.4 °F 39.2 °F 37.4 °F 71% 30.14 in 10.0 mi NNE 18.4 mph 24.2 mph N/A   Scattered Clouds
11:15 AM 46.4 °F 39.2 °F 37.4 °F 71% 30.14 in 10.0 mi NNE 18.4 mph 25.3 mph N/A   Overcast
11:55 AM 44.6 °F 36.9 °F 41.0 °F 87% 30.12 in 10.0 mi North 18.4 mph 25.3 mph N/A   Light Drizzle
12:35 PM 44.6 °F 37.2 °F 42.8 °F 93% 30.11 in 10.0 mi NNE 17.3 mph 25.3 mph N/A   Light Drizzle
12:55 PM 46.4 °F 39.0 °F 42.8 °F 87% 30.10 in 10.0 mi NNE 19.6 mph 25.3 mph N/A   Overcast
1:15 PM 46.4 °F 39.8 °F 42.8 °F 87% 30.09 in 5.0 mi NNE 16.1 mph 25.3 mph 0.01 in Rain Light Rain
1:35 PM 46.4 °F 38.5 °F 42.8 °F 87% 30.08 in 4.0 mi NNE 21.9 mph 25.3 mph 0.03 in Rain Rain
1:55 PM 46.4 °F 39.2 °F 42.8 °F 87% 30.08 in 3.0 mi NNE 18.4 mph 25.3 mph 0.07 in Rain Light Rain
2:15 PM 46.4 °F 38.7 °F 42.8 °F 87% 30.08 in 4.0 mi NNE 20.7 mph 28.8 mph 0.01 in Rain Light Rain
2:35 PM 44.6 °F 36.9 °F 42.8 °F 93% 30.08 in 7.0 mi NNE 18.4 mph 25.3 mph 0.01 in Rain Light Rain
2:55 PM 44.6 °F 37.4 °F 42.8 °F 93% 30.09 in 10.0 mi North 16.1 mph 29.9 mph 0.01 in   Overcast
3:15 PM 44.6 °F 36.4 °F 42.8 °F 93% 30.09 in 10.0 mi NNE 20.7 mph 31.1 mph N/A   Overcast
3:35 PM 44.6 °F 36.4 °F 42.8 °F 93% 30.10 in 10.0 mi NNE 20.7 mph 27.6 mph N/A   Overcast
3:55 PM 44.6 °F 37.2 °F 41.0 °F 87% 30.09 in 10.0 mi NNE 17.3 mph 29.9 mph N/A   Overcast
4:15 PM 44.6 °F 35.9 °F 41.0 °F 87% 30.10 in 10.0 mi NNE 23.0 mph 27.6 mph N/A   Overcast
4:35 PM 44.6 °F 36.4 °F 41.0 °F 87% 30.09 in 10.0 mi NNE 20.7 mph 29.9 mph N/A   Overcast
4:55 PM 44.6 °F 36.4 °F 41.0 °F 87% 30.09 in 10.0 mi NNE 20.7 mph 27.6 mph N/A   Overcast
5:15 PM 44.6 °F 36.9 °F 41.0 °F 87% 30.09 in 10.0 mi NNE 18.4 mph 27.6 mph N/A   Overcast
5:35 PM 44.6 °F 35.7 °F 41.0 °F 87% 30.08 in 10.0 mi NNE 24.2 mph 28.8 mph N/A   Overcast
5:55 PM 46.4 °F 38.1 °F 41.0 °F 81% 30.08 in 10.0 mi NNE 24.2 mph 34.5 mph N/A   Mostly Cloudy
6:15 PM 44.6 °F 36.1 °F 41.0 °F 87% 30.08 in 10.0 mi NNE 21.9 mph 32.2 mph N/A   Mostly Cloudy
6:35 PM 44.6 °F 36.6 °F 39.2 °F 81% 30.08 in 10.0 mi NNE 19.6 mph 32.2 mph N/A   Mostly Cloudy
6:55 PM 44.6 °F 36.1 °F 39.2 °F 81% 30.09 in 10.0 mi NNE 21.9 mph 35.7 mph N/A   Overcast
7:15 PM 46.4 °F 39.8 °F 39.2 °F 76% 30.08 in 10.0 mi NNE 16.1 mph 34.5 mph N/A   Overcast
7:35 PM 46.4 °F 38.3 °F 39.2 °F 76% 30.08 in 10.0 mi NNE 23.0 mph 32.2 mph N/A   Overcast
7:55 PM 44.6 °F 36.4 °F 41.0 °F 87% 30.09 in 10.0 mi NNE 20.7 mph 25.3 mph N/A   Drizzle
8:15 PM 44.6 °F 37.2 °F 41.0 °F 87% 30.08 in 10.0 mi North 17.3 mph 27.6 mph N/A Rain Light Rain
8:35 PM 44.6 °F 36.6 °F 41.0 °F 87% 30.08 in 10.0 mi NNE 19.6 mph 25.3 mph N/A   Overcast
8:55 PM 44.6 °F 35.9 °F 41.0 °F 87% 30.07 in 10.0 mi NNE 23.0 mph 35.7 mph N/A   Overcast
9:15 PM 46.4 °F 38.7 °F 41.0 °F 81% 30.07 in 10.0 mi NNE 20.7 mph 29.9 mph N/A   Overcast
9:35 PM 46.4 °F 40.4 °F 41.0 °F 81% 30.08 in 10.0 mi NNE 13.8 mph 24.2 mph N/A   Overcast
9:55 PM 44.6 °F 36.4 °F 39.2 °F 81% 30.09 in 10.0 mi NNE 20.7 mph 24.2 mph N/A   Overcast
10:15 PM 46.4 °F 39.2 °F 41.0 °F 81% 30.08 in 10.0 mi NNE 18.4 mph 28.8 mph N/A   Overcast
10:35 PM 44.6 °F 36.1 °F 41.0 °F 87% 30.09 in 10.0 mi NNE 21.9 mph 27.6 mph N/A   Overcast
10:55 PM 44.6 °F 37.2 °F 41.0 °F 87% 30.08 in 10.0 mi NNE 17.3 mph 26.5 mph N/A   Overcast
11:15 PM 44.6 °F 36.9 °F 41.0 °F 87% 30.08 in 10.0 mi NNE 18.4 mph 25.3 mph N/A   Light Drizzle
11:35 PM 44.6 °F 36.6 °F 41.0 °F 87% 30.08 in 10.0 mi North 19.6 mph 24.2 mph N/A   Overcast
11:55 PM 44.6 °F 36.6 °F 41.0 °F 87% 30.06 in 10.0 mi NNE 19.6 mph 25.3 mph N/A   Overcast